{"data":{"norad_id":60376,"epoch":"2026-09-21T20:12:59.948064Z","epoch_age_seconds":69598,"freshness":"FRESH","line1":"1 60376U 24138X   26264.84236051  .00000345  00000+0  21363-4 0  9999","line2":"2 60376  53.1614 117.4868 0001605  96.3387 263.7798 15.34384578120673","mean_motion":15.34384578,"eccentricity":0.0001605,"inclination_deg":53.1614,"raan_deg":117.4868,"arg_perigee_deg":96.3387,"mean_anomaly_deg":263.7798,"bstar":2.1363e-5,"rev_number":12067,"period_min":93.848701339072,"perigee_km":461.65111580955,"apogee_km":463.84704024059,"semimajor_km":6840.8860780251,"source":"CELESTRAK","updated_at":"2026-09-22T09:00:49.227983Z"}}